Content
SEND FEEDBACK

Daily
Averages
Monthly
Summary
United States of America

MINOT AIR FORCE BASE, NORTH DAKOTA


Home > North America > United States > North Dakota
Elevation: 1631 feet     Latitude: 48 25N     Longitude: 101 21W

WEATHER
 
SELECT A DAY
Number of Records: 204,096;   Date Range: 1/1/95 - 11/24/14
 
SHARE

PRINT THIS DATA

[ ← Previous Day ]
WEATHER ALMANAC - FEBRUARY 13, 2013
[ Next Day → ]
[ °C ]   °F
Weather ElementAverageHighLow
Temperature29 °F32 °F (11:28 am)26.6 °F (9:14 pm)
Dewpoint27 °F28.9 °F (9:54 am)21.9 °F (1:54 am)
Humidity92.5 %100 % (9:07 am)78 % (1:54 am)
Barometer29.66 in29.80 in (7:54 pm)29.56 in (8:25 am)
Wind Speed3.9 mph9.2 mph (1:54 am)
Weather ElementAverage
Visibility3.2 mi
Wind DirectionSSW (193.5 °)

Weather ElementTotal
Precipitation0.50 in
Heating Degree Days35.7 (Base 65)
Averaged from 68 records on February 13, 2013
WEATHER CONDITIONS BREAKOUT
WIND DIRECTION BREAKOUT
WEATHER BY HOUR - FEBRUARY 13, 2013
[ °C ]   °F
Local TimeTemperatureDewpointHumidityBarometerVisibilityWind DirectionWind SpeedGust SpeedPrecipitationEventsConditions
1:54 AM28.0 °F21.9 °F78 %29.75 in10.0 miSW (230°)9.2 mphOvercast
2:54 AM28.0 °F21.9 °F78 %29.73 in10.0 miSW (220°)9.2 mphOvercast
3:54 AM28.9 °F23.0 °F78 %29.70 in10.0 miCalmOvercast
4:54 AM28.0 °F23.0 °F81 %29.69 in10.0 miCalmOvercast
5:54 AM28.0 °F24.1 °F85 %29.67 in10.0 miESE (110°)4.6 mphOvercast
6:50 AM28.4 °F26.6 °F93 %29.59 in2.5 miCalm0.00 inSnowLight Snow
6:54 AM28.0 °F26.1 °F92 %29.65 in2.5 miCalm0.00 inSnowLight Snow
7:54 AM28.0 °F27.0 °F96 %29.63 in2.5 miESE (120°)3.5 mph0.00 inSnowLight Snow
8:09 AM28.4 °F26.6 °F93 %29.57 in1.2 miCalm0.00 inSnowLight Snow
8:25 AM28.4 °F26.6 °F93 %29.56 in1.0 miCalm0.00 inSnowLight Snow
8:33 AM28.4 °F26.6 °F93 %29.56 in0.5 miCalm0.01 inFog-SnowSnow
8:45 AM28.4 °F26.6 °F93 %29.56 in0.5 miCalm0.01 inFog-SnowSnow
8:54 AM28.9 °F27.0 °F92 %29.63 in0.5 miCalm0.02 inFog-SnowSnow
9:07 AM28.4 °F28.4 °F100 %29.57 in0.5 miSW (220°)3.5 mph0.01 inFog-SnowSnow
9:42 AM30.2 °F28.4 °F93 %29.56 in0.5 miCalm0.03 inFog-SnowSnow
9:54 AM30.0 °F28.9 °F96 %29.62 in0.5 miCalm0.03 inFog-SnowSnow
10:17 AM30.2 °F28.4 °F93 %29.56 in0.5 miCalm0.01 inFog-SnowSnow
10:25 AM30.2 °F28.4 °F93 %29.56 in0.2 miCalm0.02 inFog-SnowSnow
10:39 AM30.2 °F28.4 °F93 %29.56 in0.5 miCalm0.03 inFog-SnowSnow
10:51 AM30.2 °F28.4 °F93 %29.56 in0.5 miNorth (360°)3.5 mph0.03 inFog-SnowSnow
10:54 AM30.9 °F28.9 °F92 %29.62 in0.5 miNorth (360°)3.5 mph0.03 inFog-SnowSnow
11:04 AM30.2 °F28.4 °F93 %29.56 in1.0 miNorth (350°)3.5 mph0.00 inSnowLight Snow
11:19 AM30.2 °F28.4 °F93 %29.56 in2.0 miCalm0.00 inSnowLight Snow
11:28 AM32.0 °F28.4 °F87 %29.56 in1.8 miNNW (330°)3.5 mph0.00 inSnowLight Snow
11:41 AM32.0 °F28.4 °F87 %29.57 in2.5 miNW (320°)5.8 mph0.00 inSnowLight Snow
11:54 AM32.0 °F28.9 °F88 %29.63 in1.8 miNorth (350°)6.9 mph0.00 inSnowLight Snow
12:00 PM32.0 °F28.4 °F87 %29.57 in3.0 miNNW (340°)6.9 mph0.00 inSnowLight Snow
12:17 PM30.2 °F28.4 °F93 %29.57 in2.5 miNorth (350°)6.9 mph0.00 inOvercast
12:25 PM30.2 °F28.4 °F93 %29.58 in3.0 miNorth (360°)6.9 mph0.00 inOvercast
12:34 PM30.2 °F28.4 °F93 %29.57 in2.0 miNorth (360°)5.8 mph0.01 inSnowLight Snow
12:42 PM30.2 °F28.4 °F93 %29.57 in1.5 miNorth (360°)5.8 mph0.01 inSnowLight Snow
12:54 PM30.9 °F28.9 °F92 %29.64 in1.8 miNorth (360°)5.8 mph0.01 inOvercast
1:24 PM30.2 °F28.4 °F93 %29.59 in1.8 miNNW (340°)4.6 mph0.00 inOvercast
1:54 PM30.9 °F28.9 °F92 %29.66 in1.2 miNorth (360°)8.1 mph0.01 inSnowLight Snow
2:08 PM30.2 °F28.4 °F93 %29.60 in0.8 miNorth (350°)8.1 mph0.00 inSnowLight Snow
2:14 PM30.2 °F28.4 °F93 %29.60 in1.0 miNNW (340°)5.8 mph0.00 inSnowLight Snow
2:34 PM30.2 °F28.4 °F93 %29.61 in3.0 miNNW (330°)8.1 mph0.00 inSnowLight Snow
2:49 PM30.2 °F28.4 °F93 %29.61 in7.0 miNNW (330°)6.9 mph0.00 inOvercast
2:54 PM30.9 °F28.0 °F89 %29.68 in9.0 miNNW (330°)6.9 mph0.00 inOvercast
3:01 PM30.2 °F28.4 °F93 %29.62 in10.0 miNNW (340°)5.8 mphOvercast
3:54 PM30.0 °F27.0 °F88 %29.71 in10.0 miNNW (340°)9.2 mphOvercast
4:42 PM28.4 °F26.6 °F93 %29.67 in10.0 miNW (310°)9.2 mphOvercast
4:54 PM28.9 °F26.1 °F89 %29.74 in10.0 miWNW (300°)8.1 mphOvercast
5:50 PM28.4 °F26.6 °F93 %29.69 in1.8 miNW (320°)6.9 mph0.00 inSnowLight Snow
5:54 PM28.9 °F26.1 °F89 %29.76 in1.0 miNW (320°)5.8 mph0.00 inSnowLight Snow
6:00 PM28.4 °F26.6 °F93 %29.69 in0.8 miNW (320°)5.8 mph0.00 inSnowLight Snow
6:07 PM28.4 °F26.6 °F93 %29.70 in1.5 miNW (320°)5.8 mph0.00 inSnowLight Snow
6:18 PM28.4 °F26.6 °F93 %29.70 in2.5 miNW (320°)5.8 mph0.00 inSnowLight Snow
6:32 PM28.4 °F26.6 °F93 %29.71 in1.5 miWNW (300°)5.8 mph0.00 inSnowLight Snow
6:39 PM28.4 °F26.6 °F93 %29.71 in3.0 miWNW (300°)5.8 mph0.00 inSnowLight Snow
6:54 PM28.0 °F26.1 °F92 %29.78 in4.0 miNW (320°)3.5 mph0.00 inSnowLight Snow
7:06 PM28.4 °F26.6 °F93 %29.71 in1.8 miNNW (340°)4.6 mph0.01 inSnowLight Snow
7:17 PM28.4 °F26.6 °F93 %29.72 in2.0 miNW (320°)3.5 mph0.01 inSnowLight Snow
7:31 PM28.4 °F26.6 °F93 %29.72 in1.8 miWNW (300°)3.5 mph0.01 inSnowLight Snow
7:54 PM28.0 °F26.1 °F92 %29.80 in1.5 miCalm0.01 inSnowLight Snow
8:17 PM28.4 °F26.6 °F93 %29.73 in3.0 miCalm0.01 inSnowLight Snow
8:54 PM28.0 °F26.1 °F92 %29.78 in6.0 miCalm0.01 inOvercast
9:14 PM26.6 °F26.6 °F100 %29.71 in6.0 miCalmOvercast
9:54 PM27.0 °F26.1 °F96 %29.78 in8.0 miCalmOvercast
10:08 PM26.6 °F26.6 °F100 %29.72 in7.0 miCalmOvercast
10:54 PM27.0 °F26.1 °F96 %29.78 in2.5 miESE (120°)5.8 mph0.00 inSnowLight Snow
11:01 PM26.6 °F26.6 °F100 %29.70 in1.5 miSE (130°)5.8 mph0.01 inSnowLight Snow
11:10 PM26.6 °F26.6 °F100 %29.70 in2.0 miSE (130°)5.8 mph0.01 inSnowLight Snow
11:21 PM26.6 °F26.6 °F100 %29.71 in1.8 miSE (130°)4.6 mph0.01 inSnowLight Snow
11:30 PM26.6 °F26.6 °F100 %29.71 in0.8 miSSE (150°)3.5 mph0.02 inSnowLight Snow
11:35 PM26.6 °F26.6 °F100 %29.71 in0.2 miSE (140°)3.5 mph0.04 inFog-SnowHeavy Snow
11:47 PM26.6 °F26.6 °F100 %29.72 in1.0 miCalm0.04 inSnowLight Snow
11:54 PM27.0 °F26.1 °F96 %29.78 in1.5 miESE (110°)3.5 mph0.04 inSnowLight Snow
Hourly data recorded from KMOT, located miles away from Minot Air Force Base, North Dakota







STORIES FROM OUR PARTNERS